DCCHB LIPZ-EDNY

Flight info

Callsign DCCHB
Flight time 0h 41m
Altitude 36000
Route ROKIB DCT KPT VFR DCT
Aircraft LJ35/M-SGHRWXY/SB1

Departure

Time 2026-05-09 14:41
Airport Venice Marco Polo Airport (LIPZ)

Arrival

Time 2026-05-09 15:22
Airport Bodensee Airport Friedrichshafen (EDNY)
Time Latitude Longitude Altitude Speed Heading
2026-05-09 14:25 45.49828 12.33658 10 ft 0 kts 222°
2026-05-09 14:33 45.49837 12.33668 10 ft 4 kts 205°
2026-05-09 14:33 45.49858 12.33659 10 ft 1 kts 131°
2026-05-09 14:33 45.49858 12.33658 10 ft 0 kts 131°
2026-05-09 14:35 45.49855 12.33663 10 ft 3 kts 131°
2026-05-09 14:35 45.49825 12.33711 10 ft 9 kts 135°
2026-05-09 14:35 45.49764 12.33674 10 ft 12 kts 219°
2026-05-09 14:36 45.49682 12.33610 10 ft 15 kts 217°
2026-05-09 14:36 45.49612 12.33524 10 ft 11 kts 219°
2026-05-09 14:36 45.49550 12.33537 10 ft 11 kts 137°
2026-05-09 14:36 45.49504 12.33608 11 ft 5 kts 131°
2026-05-09 14:37 45.49499 12.33616 11 ft 0 kts 132°
2026-05-09 14:38 45.49498 12.33617 11 ft 2 kts 132°
2026-05-09 14:38 45.49463 12.33672 10 ft 11 kts 133°
2026-05-09 14:39 45.49423 12.33755 9 ft 9 kts 93°
2026-05-09 14:39 45.49450 12.33822 9 ft 3 kts 43°
2026-05-09 14:39 45.49456 12.33828 9 ft 0 kts 43°
2026-05-09 14:40 45.49473 12.33850 9 ft 24 kts 41°
2026-05-09 14:41 45.49820 12.34297 6 ft 108 kts 42°
2026-05-09 14:41 45.50542 12.35235 158 ft 163 kts 46°
2026-05-09 14:41 45.51467 12.36437 725 ft 192 kts 46°
2026-05-09 14:41 45.52444 12.37835 1310 ft 203 kts 48°
2026-05-09 14:42 45.53223 12.39467 2019 ft 204 kts 70°
2026-05-09 14:42 45.53528 12.41446 2608 ft 204 kts 90°
2026-05-09 14:42 45.53363 12.43453 3103 ft 211 kts 100°
2026-05-09 14:42 45.53138 12.45592 3824 ft 218 kts 98°
2026-05-09 14:43 45.52931 12.47710 4589 ft 217 kts 98°
2026-05-09 14:43 45.52666 12.49783 5226 ft 211 kts 110°
2026-05-09 14:43 45.52145 12.51056 5679 ft 227 kts 131°
2026-05-09 14:43 45.50913 12.52383 6926 ft 223 kts 157°
2026-05-09 14:44 45.49427 12.52759 8029 ft 219 kts 184°
2026-05-09 14:44 45.47966 12.52113 8954 ft 225 kts 211°
2026-05-09 14:44 45.46888 12.50582 9572 ft 225 kts 240°
2026-05-09 14:44 45.46372 12.48318 10021 ft 267 kts 267°
2026-05-09 14:45 45.46658 12.45487 10438 ft 312 kts 287°
2026-05-09 14:45 45.47407 12.42427 11154 ft 337 kts 291°
2026-05-09 14:45 45.48264 12.39217 12136 ft 356 kts 289°
2026-05-09 14:45 45.49028 12.35823 12985 ft 376 kts 286°
2026-05-09 14:46 45.49758 12.32138 14103 ft 381 kts 285°
2026-05-09 14:46 45.50529 12.28486 15253 ft 387 kts 287°
2026-05-09 14:46 45.51349 12.24864 16352 ft 392 kts 288°
2026-05-09 14:46 45.52171 12.21141 17439 ft 396 kts 287°
2026-05-09 14:47 45.52977 12.17356 18464 ft 401 kts 287°
2026-05-09 14:47 45.53806 12.13536 19417 ft 403 kts 287°
2026-05-09 14:47 45.54647 12.09735 20382 ft 403 kts 287°
2026-05-09 14:47 45.55487 12.05897 21278 ft 405 kts 287°
2026-05-09 14:48 45.56322 12.02049 22112 ft 406 kts 288°
2026-05-09 14:48 45.57469 11.98355 22876 ft 410 kts 298°
2026-05-09 14:48 45.59106 11.95019 23688 ft 411 kts 308°
2026-05-09 14:48 45.61156 11.92172 24477 ft 412 kts 317°
2026-05-09 14:49 45.63563 11.89920 25213 ft 417 kts 327°
2026-05-09 14:49 45.66183 11.88116 25959 ft 417 kts 329°
2026-05-09 14:49 45.68789 11.86337 26720 ft 415 kts 329°
2026-05-09 14:49 45.71386 11.84552 27486 ft 414 kts 328°
2026-05-09 14:50 45.73975 11.82772 28278 ft 412 kts 328°
2026-05-09 14:50 45.76548 11.80994 29058 ft 410 kts 328°
2026-05-09 14:50 45.79118 11.79220 29814 ft 409 kts 328°
2026-05-09 14:50 45.81674 11.77448 30509 ft 406 kts 327°
2026-05-09 14:51 45.84211 11.75689 31193 ft 404 kts 327°
2026-05-09 14:51 45.86736 11.73938 31790 ft 403 kts 326°
2026-05-09 14:51 45.89257 11.72198 32413 ft 401 kts 326°
2026-05-09 14:51 45.91772 11.70458 32928 ft 400 kts 326°
2026-05-09 14:52 45.94277 11.68726 33499 ft 399 kts 324°
2026-05-09 14:52 45.96752 11.66972 34052 ft 396 kts 323°
2026-05-09 14:52 45.99200 11.65189 34528 ft 393 kts 323°
2026-05-09 14:52 46.01654 11.63414 34854 ft 395 kts 324°
2026-05-09 14:53 46.04124 11.61660 35174 ft 395 kts 325°
2026-05-09 14:53 46.06591 11.59900 35460 ft 397 kts 324°
2026-05-09 14:53 46.09060 11.58117 35869 ft 397 kts 325°
2026-05-09 14:53 46.11543 11.56326 36111 ft 403 kts 325°
2026-05-09 14:54 46.16674 11.52631 36117 ft 421 kts 326°
2026-05-09 14:54 46.21975 11.48813 36072 ft 429 kts 326°
2026-05-09 14:55 46.27341 11.44931 36043 ft 432 kts 326°
2026-05-09 14:55 46.31808 11.41700 36030 ft 431 kts 326°
2026-05-09 14:56 46.35190 11.39242 36014 ft 429 kts 326°
2026-05-09 14:56 46.40518 11.35367 36000 ft 428 kts 326°
2026-05-09 14:57 46.45832 11.31498 35664 ft 425 kts 325°
2026-05-09 14:57 46.48463 11.29578 35032 ft 422 kts 325°
2026-05-09 14:57 46.51078 11.27664 34424 ft 419 kts 324°
2026-05-09 14:58 46.53675 11.25764 33798 ft 417 kts 324°
2026-05-09 14:58 46.56261 11.23872 33124 ft 415 kts 325°
2026-05-09 14:58 46.58801 11.22010 32464 ft 414 kts 326°
2026-05-09 14:58 46.61371 11.20122 31819 ft 413 kts 326°
2026-05-09 14:59 46.63934 11.18233 31196 ft 413 kts 327°
2026-05-09 14:59 46.66499 11.16352 30577 ft 412 kts 327°
2026-05-09 14:59 46.69060 11.14469 29952 ft 412 kts 328°
2026-05-09 14:59 46.71607 11.12588 29228 ft 409 kts 328°
2026-05-09 15:00 46.74147 11.10716 28547 ft 409 kts 328°
2026-05-09 15:00 46.76688 11.08841 27872 ft 410 kts 328°
2026-05-09 15:00 46.79230 11.06960 27182 ft 409 kts 329°
2026-05-09 15:00 46.81778 11.05074 26544 ft 416 kts 329°
2026-05-09 15:01 46.87079 11.01144 26099 ft 428 kts 330°
2026-05-09 15:01 46.89730 10.99181 25990 ft 427 kts 330°
2026-05-09 15:01 46.92352 10.97233 25412 ft 415 kts 330°
2026-05-09 15:02 46.94894 10.95339 24649 ft 407 kts 330°
2026-05-09 15:02 46.97396 10.93474 23888 ft 400 kts 331°
2026-05-09 15:02 46.99863 10.91632 22981 ft 396 kts 331°
2026-05-09 15:02 47.02311 10.89805 22093 ft 393 kts 331°
2026-05-09 15:03 47.04740 10.87992 21258 ft 391 kts 331°
2026-05-09 15:03 47.07159 10.86180 20473 ft 388 kts 332°
2026-05-09 15:03 47.09552 10.84387 19706 ft 385 kts 332°
2026-05-09 15:03 47.11922 10.82614 18856 ft 380 kts 332°
2026-05-09 15:04 47.14269 10.80853 17927 ft 376 kts 332°
2026-05-09 15:04 47.16584 10.79113 17106 ft 369 kts 332°
2026-05-09 15:06 47.30939 10.69976 16480 ft 343 kts 358°
2026-05-09 15:06 47.33390 10.70166 15812 ft 361 kts
2026-05-09 15:06 47.35912 10.70458 15220 ft 366 kts
2026-05-09 15:06 47.38455 10.70780 14706 ft 365 kts
2026-05-09 15:07 47.40985 10.71111 14101 ft 365 kts
2026-05-09 15:07 47.43522 10.71442 13402 ft 366 kts
2026-05-09 15:07 47.46061 10.71771 12675 ft 363 kts
2026-05-09 15:07 47.48538 10.72092 12095 ft 349 kts
2026-05-09 15:08 47.50860 10.72396 12075 ft 322 kts
2026-05-09 15:08 47.55156 10.72962 11902 ft 304 kts
2026-05-09 15:08 47.57254 10.73234 11358 ft 302 kts
2026-05-09 15:09 47.59340 10.73502 10840 ft 299 kts
2026-05-09 15:10 47.68965 10.61437 7147 ft 267 kts 293°
2026-05-09 15:11 47.69528 10.58833 6647 ft 265 kts 284°
2026-05-09 15:11 47.69969 10.56161 6153 ft 275 kts 283°
2026-05-09 15:11 47.70254 10.53312 5663 ft 284 kts 275°
2026-05-09 15:11 47.70357 10.50358 5190 ft 289 kts 272°
2026-05-09 15:12 47.70394 10.47358 4766 ft 292 kts 270°
2026-05-09 15:12 47.70391 10.44372 4624 ft 286 kts 270°
2026-05-09 15:12 47.70384 10.41457 4443 ft 279 kts 270°
2026-05-09 15:12 47.70370 10.38612 4224 ft 273 kts 270°
2026-05-09 15:13 47.70445 10.35816 4043 ft 268 kts 277°
2026-05-09 15:13 47.70729 10.33133 4019 ft 258 kts 286°
2026-05-09 15:13 47.71263 10.30645 4016 ft 251 kts 282°
2026-05-09 15:13 47.71159 10.28109 4020 ft 246 kts 253°
2026-05-09 15:14 47.70587 10.25739 4019 ft 243 kts 249°
2026-05-09 15:14 47.69857 10.23541 4032 ft 239 kts 239°
2026-05-09 15:14 47.69026 10.21409 4018 ft 238 kts 240°
2026-05-09 15:14 47.68312 10.19219 4020 ft 234 kts 248°
2026-05-09 15:15 47.67826 10.16731 4027 ft 230 kts 257°
2026-05-09 15:15 47.67615 10.15348 4016 ft 234 kts 258°
2026-05-09 15:15 47.67344 10.11986 4008 ft 261 kts 271°
2026-05-09 15:15 47.67447 10.09252 4038 ft 270 kts 275°
2026-05-09 15:16 47.67607 10.06390 4032 ft 279 kts 275°
2026-05-09 15:16 47.67779 10.03496 4036 ft 284 kts 276°
2026-05-09 15:16 47.67949 10.00562 4030 ft 286 kts 275°
2026-05-09 15:16 47.68283 9.97748 4015 ft 277 kts 287°
2026-05-09 15:17 47.68884 9.95083 4022 ft 269 kts 291°
2026-05-09 15:17 47.69523 9.92510 4006 ft 263 kts 294°
2026-05-09 15:17 47.70271 9.90073 3993 ft 256 kts 294°
2026-05-09 15:17 47.70647 9.87510 4002 ft 253 kts 277°
2026-05-09 15:18 47.70778 9.84888 3997 ft 255 kts 274°
2026-05-09 15:18 47.70857 9.82258 3999 ft 255 kts 274°
2026-05-09 15:18 47.70963 9.79634 3997 ft 253 kts 275°
2026-05-09 15:18 47.71097 9.77002 3785 ft 260 kts 275°
2026-05-09 15:19 47.71218 9.74366 3467 ft 251 kts 275°
2026-05-09 15:19 47.71325 9.71810 3238 ft 243 kts 275°
2026-05-09 15:19 47.71438 9.69334 3018 ft 237 kts 275°
2026-05-09 15:19 47.71539 9.66941 3000 ft 227 kts 273°
2026-05-09 15:20 47.71631 9.64667 2990 ft 211 kts 273°
2026-05-09 15:20 47.70936 9.61003 2690 ft 169 kts 239°
2026-05-09 15:20 47.70544 9.60019 2552 ft 165 kts 241°
2026-05-09 15:21 47.69821 9.58108 2264 ft 153 kts 242°
2026-05-09 15:21 47.69301 9.56746 2061 ft 148 kts 241°
2026-05-09 15:21 47.68798 9.55448 1877 ft 144 kts 240°
2026-05-09 15:21 47.68313 9.54175 1725 ft 139 kts 240°
2026-05-09 15:22 47.67830 9.52941 1521 ft 136 kts 240°
2026-05-09 15:22 47.67361 9.51740 1373 ft 126 kts 239°
2026-05-09 15:22 47.67014 9.50853 1370 ft 63 kts 240°
2026-05-09 15:22 47.66876 9.50485 1371 ft 23 kts 242°
2026-05-09 15:23 47.66797 9.50284 1372 ft 25 kts 236°
2026-05-09 15:23 47.66697 9.50041 1372 ft 30 kts 238°
2026-05-09 15:23 47.66612 9.49840 1371 ft 14 kts 216°
2026-05-09 15:23 47.66530 9.49911 1370 ft 16 kts 120°
2026-05-09 15:24 47.66475 9.50052 1370 ft 15 kts 111°
2026-05-09 15:24 47.66489 9.50189 1370 ft 13 kts 60°
2026-05-09 15:24 47.66537 9.50312 1370 ft 14 kts 59°
2026-05-09 15:24 47.66590 9.50445 1370 ft 16 kts 59°
2026-05-09 15:25 47.66647 9.50591 1370 ft 16 kts 60°
2026-05-09 15:25 47.66726 9.50716 1370 ft 18 kts 31°
2026-05-09 15:25 47.66832 9.50846 1370 ft 21 kts 60°
2026-05-09 15:26 47.66849 9.51074 1370 ft 10 kts 127°
2026-05-09 15:26 47.66849 9.51192 1370 ft 11 kts 79°
2026-05-09 15:26 47.66878 9.51275 1370 ft 8 kts 41°
2026-05-09 15:26 47.66892 9.51284 1370 ft 2 kts 355°
2026-05-09 15:27 47.66909 9.51282 1370 ft 2 kts 45°
2026-05-09 15:27 47.66910 9.51284 1370 ft 0 kts 47°